Location: Beugnon
(47.6222°N, 3.7850°E)
Time: 08:24:52
(UTC+00:00)

Cosmos 2082 Rocket - Pass Details

Date: 09 April 2020
Orbit: 831 x 855 km, 71.0° (Epoch: 01 June)

Event Time Altitude Azimuth Distance (km) Brightness Sun altitude
Exits shadow 22:15:29 59° 11° (N) 968 2.6 -30.8°
Drops below altitude 10° 22:20:04 10° 26° (NNE) 2,472 5.0 -31.2°
Sets 22:22:32 0° 27° (NNE) 3,414 5.8 -31.4°
